Date,TemperatureHighF,TemperatureAvgF,TemperatureLowF,DewpointHighF,DewpointAvgF,DewpointLowF,HumidityHigh,HumidityAvg,HumidityLow,PressureMaxIn,PressureMinIn,WindSpeedMaxMPH,WindSpeedAvgMPH,GustSpeedMaxMPH,PrecipitationSumIn
2013-1-1,23.5,13.7,6.1,14.8,7.9,1.5,86,77,55,30.75,30.24,24,9,27,0.00
2013-1-2,30.6,22.8,14.3,9.3,4.1,-99.9,62,46,34,30.64,30.29,20,-4,21,0.00
2013-1-3,42.2,33.1,24.7,20.3,8.0,-6.9,74,36,16,30.37,30.18,12,2,12,0.01
2013-1-4,40.1,33.7,29.3,24.0,16.0,7.7,73,48,36,30.36,30.19,11,2,11,0.02
2013-1-5,42.2,34.8,27.3,26.1,18.5,8.8,75,51,36,30.27,29.99,13,3,16,0.00
2013-1-6,29.1,23.3,18.9,22.5,17.5,9.2,89,79,47,30.29,29.93,22,4,26,0.02
2013-1-7,41.1,30.1,20.8,29.5,21.0,-99.9,89,73,46,30.40,30.17,16,-8,23,0.05
2013-1-8,45.2,38.0,30.9,32.4,27.5,18.1,86,66,44,30.32,30.15,12,2,14,0.01
2013-1-9,44.5,35.5,16.9,27.6,20.3,9.0,92,58,27,30.17,29.66,26,9,33,0.00
2013-1-10,16.9,13.8,11.7,13.7,8.5,5.0,87,79,68,30.18,29.77,28,12,33,0.00
2013-1-11,15.9,13.1,10.0,9.2,5.3,0.8,84,71,54,30.31,30.16,25,10,30,0.00
2013-1-12,20.0,11.3,5.4,11.3,2.3,-6.6,83,69,40,30.39,30.26,13,4,14,0.00
2013-1-13,11.9,9.1,6.5,5.2,-3.3,-14.5,74,57,32,30.41,30.30,11,4,11,0.00
2013-1-14,22.7,11.4,1.1,13.8,1.6,-6.7,83,66,35,30.74,30.49,20,9,24,0.00
2013-1-15,37.8,28.7,19.5,20.7,16.7,9.0,78,61,41,30.66,30.57,21,10,29,0.00
2013-1-16,36.6,29.7,26.7,17.5,12.0,4.1,67,48,31,30.70,30.53,19,9,23,0.00
2013-1-17,36.0,29.4,25.6,9.5,5.7,1.5,49,36,25,30.59,30.42,12,7,17,0.00
2013-1-18,39.6,30.9,25.1,11.8,3.7,-1.5,54,32,20,30.49,30.34,13,5,14,0.00
2013-1-19,39.5,31.5,26.4,8.0,1.6,-3.3,44,28,19,30.51,30.36,12,5,16,0.00
2013-1-20,37.5,30.9,25.1,11.9,3.0,-1.5,55,31,23,30.49,30.35,14,6,18,0.00
2013-1-21,47.1,39.0,30.7,11.5,3.8,-3.3,30,23,14,30.42,30.21,12,3,14,0.00
2013-1-22,48.6,41.8,34.0,17.3,6.7,-11.3,40,24,9,30.23,30.04,14,3,18,0.00
2013-1-23,47.4,39.7,32.8,27.1,7.6,-5.9,79,30,13,30.09,30.00,17,3,25,0.00
2013-1-24,37.9,34.6,31.8,34.7,31.7,27.6,93,89,80,30.25,30.03,6,1,9,0.21
2013-1-25,42.1,37.0,33.7,36.4,33.7,31.3,93,88,75,30.22,30.00,13,2,17,0.00
2013-1-26,39.6,32.8,25.6,32.0,25.5,19.4,93,76,50,30.01,29.82,34,10,34,0.01
2013-1-27,25.6,19.5,14.3,20.4,13.7,7.6,92,78,57,30.25,29.84,28,6,28,0.00
2013-1-28,24.5,19.8,14.0,20.3,12.8,5.2,89,74,63,30.37,30.19,25,6,26,0.00
2013-1-29,39.1,31.7,24.8,27.8,22.8,17.1,81,69,61,30.38,30.26,23,9,39,0.00
2013-1-30,36.5,36.1,35.8,26.4,26.4,26.4,68,68,67,30.32,30.32,7,7,12,0.00
2013-1-31,37.3,36.9,36.5,26.5,26.5,26.4,67,66,65,30.32,30.31,7,7,11,0.00
2013-2-1,38.0,37.6,37.3,26.5,26.5,26.5,65,64,63,30.31,30.30,7,6,10,0.00
2013-2-2,40.5,38.1,32.1,26.7,22.6,9.7,63,54,32,30.33,30.26,8,5,12,0.00
2013-2-3,45.7,36.5,29.4,25.2,18.7,13.2,79,50,28,30.28,30.15,9,3,14,0.00
2013-2-4,48.3,37.2,30.1,25.5,18.6,12.7,62,48,25,30.27,30.08,11,4,13,0.00
2013-2-5,44.8,37.0,29.3,20.3,11.4,-1.5,65,36,18,30.04,29.89,21,8,32,0.00
2013-2-6,43.1,31.9,24.1,17.5,2.4,-7.5,51,29,13,30.23,30.02,11,3,15,0.00
2013-2-7,32.4,29.7,25.8,21.1,0.3,-12.5,82,30,15,30.07,29.92,24,11,29,0.00
2013-2-8,25.1,18.8,15.1,17.3,12.4,8.0,86,76,58,30.04,29.95,9,2,14,0.00
2013-2-9,28.5,19.9,12.4,15.2,10.4,6.4,86,67,47,30.25,30.08,11,3,14,0.00
2013-2-10,27.5,22.6,19.5,16.5,12.9,8.5,77,66,53,30.23,30.13,20,5,27,0.00
2013-2-11,23.1,21.5,19.9,11.8,10.4,9.0,62,62,62,30.24,30.21,10,10,20,0.00
2013-2-12,26.2,24.6,23.1,14.7,13.3,11.9,62,61,61,30.26,30.24,9,9,19,0.00
2013-2-13,29.3,27.8,26.2,17.5,16.1,14.7,61,61,61,30.29,30.26,8,8,18,0.00
2013-2-14,36.8,30.8,28.7,24.3,19.6,17.5,74,63,60,30.47,30.29,12,7,22,0.00
2013-2-15,47.0,35.5,25.3,22.8,19.4,11.5,82,55,32,30.51,30.31,10,4,16,0.00
2013-2-16,43.5,37.4,33.1,19.5,12.3,2.1,49,36,23,30.32,30.12,13,2,17,0.00
2013-2-17,42.9,34.2,26.9,19.9,10.5,4.0,66,39,20,30.08,29.96,16,5,23,0.00
2013-2-18,40.3,31.9,27.2,18.7,12.0,2.5,69,45,22,30.06,29.74,25,7,31,0.00
2013-2-19,27.8,21.8,17.2,22.5,13.1,-99.9,90,74,38,29.78,29.59,31,-6,34,0.00
2013-2-20,32.4,22.9,16.7,16.0,12.6,4.3,87,67,38,30.10,29.76,15,3,21,0.01
2013-2-21,30.9,23.1,15.7,15.9,11.4,5.0,86,62,37,30.28,29.96,22,4,23,0.01
2013-2-22,39.8,27.7,22.2,21.8,2.2,-99.9,74,46,25,30.32,30.07,28,-97,33,0.01
2013-2-23,33.2,24.8,15.4,22.8,12.9,1.4,80,61,39,30.33,29.82,41,10,41,0.00
2013-2-24,35.5,23.6,13.1,11.1,6.1,-0.1,78,50,26,30.46,30.29,23,7,24,0.00
2013-2-25,39.5,31.0,24.5,22.1,10.2,-2.5,78,44,18,30.30,30.13,32,10,35,0.00
2013-2-26,35.9,27.2,17.5,16.2,4.2,-6.2,68,40,16,30.44,30.17,15,4,20,0.00
2013-2-27,41.8,33.2,26.6,14.7,4.0,-3.6,52,30,18,30.44,30.29,20,4,22,0.00
2013-2-28,49.1,37.6,28.5,29.0,21.2,8.4,63,51,37,30.49,30.34,14,4,16,0.00
2013-3-1,53.9,43.5,34.6,27.0,24.6,20.4,70,49,28,30.47,30.25,14,3,15,0.00
2013-3-2,51.1,42.9,36.9,26.2,20.2,15.3,65,41,25,30.26,30.01,20,4,24,0.00
2013-3-3,36.9,31.9,28.2,30.4,28.9,26.2,94,89,65,30.14,29.95,16,4,26,0.12
2013-3-4,44.9,34.3,26.1,31.4,27.0,20.5,93,76,49,30.20,30.03,11,2,12,0.02
2013-3-5,44.3,35.2,30.0,25.8,21.6,12.1,84,58,39,30.03,29.64,29,7,38,0.00
2013-3-6,29.4,22.4,18.9,25.9,18.1,-99.9,93,86,79,30.14,29.69,30,-1,34,0.00
2013-3-7,28.5,23.5,19.7,25.1,20.2,16.0,90,87,83,30.10,29.92,14,3,16,0.01
2013-3-8,31.2,24.9,22.5,25.5,19.1,-99.9,90,85,75,30.06,29.86,14,-22,14,0.00
2013-3-9,37.2,28.1,21.8,21.5,7.7,-99.9,87,51,27,30.49,29.97,20,-43,24,0.01
2013-3-10,47.4,35.9,25.7,12.9,6.9,2.2,41,30,16,30.50,30.33,17,5,22,0.00
2013-3-11,57.8,44.5,33.2,20.3,10.0,3.7,35,24,16,30.34,30.10,12,2,12,0.00
2013-3-12,61.8,47.2,37.8,33.9,17.6,1.3,61,32,13,30.20,30.03,9,2,12,0.00
2013-3-13,59.0,49.7,39.2,33.3,23.3,10.1,62,38,16,30.19,30.03,15,4,17,0.00
2013-3-14,59.5,50.0,43.3,32.5,18.1,7.4,60,29,18,30.14,30.02,23,6,25,0.00
2013-3-15,53.3,46.0,40.6,27.9,17.4,5.1,55,32,20,30.14,29.97,21,7,22,0.00
2013-3-16,48.8,40.8,33.8,24.9,17.2,5.1,63,39,19,30.06,29.94,34,9,36,0.00
2013-3-17,47.1,38.2,30.9,22.1,11.6,-0.0,59,35,17,30.11,29.98,24,10,25,0.00
2013-3-18,46.2,38.6,32.9,29.4,12.5,3.4,70,35,21,30.12,30.02,23,7,25,0.00
2013-3-19,45.8,37.6,32.2,31.8,26.6,11.6,91,65,38,30.11,30.02,30,8,30,0.00
2013-3-20,37.5,33.0,30.7,35.7,30.3,25.2,97,90,76,30.10,29.94,33,15,35,0.01
2013-3-21,43.5,34.9,27.8,27.9,18.2,-0.8,76,53,18,30.12,29.97,28,6,32,0.00
2013-3-22,43.8,32.5,26.1,21.5,2.6,-16.6,71,33,9,30.17,30.00,20,4,21,0.00
2013-3-23,44.9,32.5,18.1,20.7,9.6,-0.4,55,40,16,30.25,30.08,27,6,29,0.00
2013-3-24,48.2,39.1,30.9,26.7,19.3,4.3,76,47,23,30.13,29.96,24,7,26,0.00
2013-3-25,51.0,40.3,34.7,25.6,7.9,-99.9,62,28,16,30.01,29.85,25,-4,29,0.00
2013-3-26,42.9,36.7,32.7,30.9,24.7,13.6,89,63,41,29.96,29.79,29,10,35,0.00
2013-3-27,47.9,37.4,31.5,33.2,28.6,23.9,88,72,41,30.01,29.90,23,6,27,0.00
2013-3-28,47.7,37.2,32.5,33.3,29.5,23.1,92,75,43,30.17,29.92,19,4,21,0.13
2013-3-29,52.0,42.5,32.4,38.3,30.4,26.5,86,64,38,30.24,30.05,11,2,13,0.01
2013-3-30,59.2,46.4,40.6,35.3,29.7,24.7,79,54,28,30.08,29.85,19,3,19,0.00
2013-3-31,41.9,34.8,29.3,34.7,29.6,24.0,94,82,53,30.09,29.81,19,6,21,0.06
2013-4-1,39.5,33.0,28.8,30.7,27.8,25.3,93,81,60,30.20,30.01,20,7,24,0.03
2013-4-2,54.7,39.9,28.8,33.6,28.0,19.8,90,66,27,30.23,30.07,13,2,15,0.01
2013-4-3,55.1,44.9,35.3,36.2,30.1,20.0,83,58,27,30.15,29.96,20,3,21,0.00
2013-4-4,45.7,40.2,33.2,36.4,28.4,11.6,93,66,26,30.07,29.86,29,7,30,0.08
2013-4-5,45.4,36.6,30.7,31.4,24.0,15.0,93,62,40,30.15,30.03,28,9,32,0.00
2013-4-6,45.7,37.7,32.2,29.0,23.8,15.0,72,58,43,30.14,30.02,30,11,36,0.00
2013-4-7,48.8,37.3,26.7,28.2,24.1,15.3,90,61,38,30.06,29.60,36,13,42,0.00
2013-4-8,32.2,26.5,23.0,24.6,20.1,13.1,91,78,48,30.18,29.52,23,6,28,0.03
2013-4-9,43.5,31.2,21.6,19.0,13.3,5.5,78,51,22,30.34,30.10,31,8,36,0.00
2013-4-10,59.5,44.9,33.1,33.9,23.3,14.2,65,43,25,30.30,29.89,27,8,28,0.00
2013-4-11,55.6,43.5,34.3,35.3,30.9,18.4,92,64,35,30.02,29.79,18,4,20,0.00
2013-4-12,58.9,44.7,34.9,35.9,25.3,19.8,70,48,24,29.97,29.80,27,7,27,0.00
2013-4-13,51.7,45.6,37.9,31.5,23.1,6.0,73,42,20,29.79,29.64,37,15,40,0.00
2013-4-14,47.1,39.0,32.8,28.7,24.7,20.3,75,57,38,29.78,29.61,46,16,48,0.00
2013-4-15,37.6,28.7,21.4,26.4,19.6,9.7,90,70,34,29.87,29.60,34,11,40,0.00
2013-4-16,28.1,22.0,19.4,19.2,15.8,7.1,89,78,50,30.31,29.83,16,3,23,0.04
2013-4-17,35.9,25.6,16.9,17.4,10.6,4.2,87,55,32,30.45,30.26,29,6,29,0.03
2013-4-18,53.9,38.2,25.6,16.1,10.1,3.7,45,32,19,30.41,30.25,16,4,21,0.00
2013-4-19,50.8,42.1,33.7,29.6,22.4,12.6,67,46,31,30.28,30.08,29,9,32,0.00
2013-4-20,64.7,46.9,32.4,31.2,23.1,-3.3,72,44,9,30.17,29.97,11,2,13,0.00
2013-4-21,60.9,49.9,39.1,36.8,25.3,14.3,60,40,23,30.06,29.90,21,4,21,0.00
2013-4-22,65.6,49.7,35.9,33.4,22.7,7.5,66,38,14,30.06,29.84,21,4,25,0.00
2013-4-23,62.7,42.0,28.2,28.5,9.0,0.5,46,26,15,30.17,29.92,26,6,30,0.00
2013-4-24,56.3,44.2,33.8,10.2,3.0,-4.6,23,18,14,30.06,29.84,22,6,28,0.00
2013-4-25,59.2,47.8,40.3,25.7,15.2,2.7,42,27,19,30.06,29.87,19,4,21,0.00
2013-4-26,67.1,53.2,41.5,34.3,23.1,6.3,54,34,10,30.17,30.03,15,3,18,0.00
2013-4-27,63.1,53.7,46.2,35.5,30.2,21.2,57,42,22,30.18,30.03,21,5,25,0.00
2013-4-28,64.3,53.8,44.6,37.4,25.5,9.1,57,36,14,30.06,29.89,17,4,19,0.00
2013-4-29,62.6,53.9,45.5,38.8,32.0,26.8,56,44,28,29.89,29.71,29,8,30,0.00
2013-4-30,65.2,49.6,37.3,35.1,22.4,-9.0,70,38,13,30.04,29.67,22,3,26,0.00
2013-5-1,53.9,40.1,29.7,3.7,-2.6,-10.0,23,16,10,30.42,30.00,28,9,33,0.00
2013-5-2,66.3,49.3,33.7,30.1,8.1,-6.4,45,20,13,30.42,30.11,18,5,25,0.00
2013-5-3,67.6,55.1,44.9,35.5,21.6,4.8,54,31,11,30.11,29.80,16,2,16,0.00
2013-5-4,58.1,47.3,39.5,29.1,19.5,6.5,58,35,16,29.83,29.61,22,6,27,0.00
2013-5-5,55.6,42.0,34.7,38.7,33.7,25.1,93,74,44,29.79,29.61,16,4,21,0.10
2013-5-6,38.9,34.3,31.8,36.4,32.4,29.3,97,93,87,30.01,29.69,19,6,23,0.67
2013-5-7,37.2,34.0,31.0,35.9,32.5,28.7,95,94,91,30.07,29.96,20,8,21,0.43
2013-5-8,57.5,42.1,34.0,41.8,36.5,32.5,95,83,48,30.11,29.96,11,3,14,0.07
2013-5-9,63.7,49.5,38.8,41.9,37.7,32.2,92,67,31,30.13,29.98,21,2,23,0.01
2013-5-10,71.1,56.7,44.2,41.8,35.0,28.5,72,47,23,30.12,30.02,12,1,15,0.00
2013-5-11,76.8,59.8,48.9,42.1,35.2,20.8,65,44,13,30.13,29.99,17,3,21,0.00
2013-5-12,66.8,57.9,48.9,36.2,31.9,25.3,53,38,25,30.14,29.98,28,8,29,0.00
2013-5-13,68.1,59.5,52.9,32.0,27.0,20.9,42,29,22,30.04,29.88,26,7,30,0.00
2013-5-14,67.6,55.7,48.3,41.9,32.7,26.0,71,43,22,29.89,29.81,21,5,23,0.00
2013-5-15,61.5,51.9,44.3,38.8,23.5,10.2,68,36,15,29.92,29.83,31,9,31,0.00
2013-5-16,47.6,41.3,36.9,35.4,31.3,23.5,85,68,46,29.93,29.81,26,8,28,0.00
2013-5-17,50.1,40.7,34.9,31.6,25.3,-99.9,83,59,36,30.03,29.81,27,-15,33,0.00
2013-5-18,52.5,42.9,34.4,31.3,24.6,14.1,80,50,27,30.13,30.01,30,10,34,0.00
2013-5-19,64.5,47.2,34.9,33.0,26.3,14.3,84,50,20,30.17,30.00,19,3,23,0.00
2013-5-20,69.3,50.9,37.6,32.0,23.6,16.8,50,36,17,30.12,29.88,27,7,27,0.00
2013-5-21,57.5,49.6,41.5,29.8,20.6,6.2,50,33,18,29.88,29.67,40,16,41,0.00
2013-5-22,51.6,40.8,32.2,19.5,10.7,-0.4,58,30,15,29.83,29.63,29,10,33,0.00
2013-5-23,45.2,36.9,28.1,23.4,16.4,3.7,65,44,24,30.04,29.77,28,7,31,0.00
2013-5-24,58.6,44.4,33.1,28.3,20.3,4.5,80,42,12,30.00,29.85,27,8,28,0.00
2013-5-25,53.2,44.4,37.3,32.2,21.8,7.1,73,43,23,29.94,29.82,24,10,28,0.00
2013-5-26,53.2,44.0,36.6,33.8,26.0,21.7,77,50,33,30.03,29.90,28,10,32,0.00
2013-5-27,50.4,42.0,38.2,37.4,26.6,9.9,89,58,24,30.01,29.83,23,8,28,0.03
2013-5-28,50.5,43.7,38.0,37.7,34.1,28.3,92,71,43,29.91,29.79,28,12,31,0.04
2013-5-29,54.2,46.3,39.5,38.1,32.2,22.9,88,60,38,29.91,29.72,34,12,37,0.01
2013-5-30,59.8,48.5,36.8,36.2,26.9,6.8,92,49,14,29.98,29.86,25,7,28,0.00
2013-5-31,70.8,55.7,42.1,30.1,21.4,12.3,56,30,12,30.07,29.93,18,4,23,0.00
2013-6-1,76.3,61.1,49.9,39.2,24.5,12.7,53,26,13,29.97,29.72,16,5,23,0.00
2013-6-2,68.6,60.5,53.3,40.1,32.6,26.3,52,36,23,29.73,29.61,25,7,29,0.00
2013-6-3,78.5,62.9,50.8,43.5,27.8,20.7,51,28,16,29.80,29.65,16,3,20,0.00
2013-6-4,79.6,65.4,55.9,44.2,25.9,11.8,49,25,9,29.79,29.67,16,4,17,0.00
2013-6-5,82.2,68.1,57.5,43.7,27.9,15.7,49,24,10,29.87,29.74,13,3,15,0.00
2013-6-6,81.8,68.1,58.1,44.6,34.6,13.5,56,32,9,29.82,29.71,20,4,23,0.00
2013-6-7,79.9,68.8,59.6,44.3,32.3,20.4,48,28,13,29.86,29.71,18,4,22,0.00
2013-6-8,87.8,73.5,62.4,39.2,32.8,18.7,38,23,13,29.77,29.64,16,3,20,0.00
2013-6-9,87.0,69.7,60.2,52.8,34.0,21.5,76,30,15,29.74,29.51,19,3,25,0.06
2013-6-10,64.3,56.4,50.2,52.7,41.9,28.1,83,60,28,29.76,29.51,27,9,27,0.00
2013-6-11,65.5,56.3,48.8,38.4,31.4,24.8,61,40,27,29.88,29.75,25,8,30,0.00
2013-6-12,66.8,56.7,46.7,34.5,27.9,13.5,51,34,25,29.83,29.74,30,9,38,0.00
2013-6-13,59.2,51.0,43.6,27.7,7.2,-13.3,44,18,8,30.04,29.79,31,8,33,0.00
2013-6-14,68.3,52.4,38.9,26.2,22.1,13.7,51,32,20,30.03,29.84,19,4,24,0.00
2013-6-15,65.8,56.7,48.6,33.4,22.9,13.9,50,28,16,29.88,29.74,28,7,30,0.00
2013-6-16,63.7,53.8,43.3,34.6,26.5,10.7,56,37,16,30.02,29.85,28,9,32,0.00
2013-6-17,65.3,54.7,46.5,36.0,28.5,18.0,60,38,20,30.00,29.84,26,8,31,0.00
2013-6-18,59.6,49.9,38.9,29.7,22.3,15.9,58,35,24,29.84,29.73,32,12,35,0.00
2013-6-19,52.6,44.2,35.8,30.2,14.8,2.3,67,32,19,29.99,29.75,30,11,30,0.00
2013-6-20,55.9,47.2,37.5,32.1,24.9,15.7,66,43,25,29.97,29.88,27,8,29,0.00
2013-6-21,60.1,50.6,38.2,33.8,28.6,17.7,71,46,21,29.98,29.89,22,5,25,0.00
2013-6-22,73.2,56.7,45.1,34.4,28.7,22.1,53,35,19,29.92,29.71,22,5,24,0.00
2013-6-23,57.8,51.3,43.6,38.8,32.2,19.8,77,49,28,29.75,29.66,32,8,33,0.00
2013-6-24,48.8,44.6,43.2,43.5,39.3,28.1,95,82,53,29.87,29.63,27,8,27,0.13
2013-6-25,53.9,49.5,44.9,50.0,45.7,43.5,95,87,76,29.94,29.81,22,6,23,0.05
2013-6-26,69.3,58.1,49.1,51.2,45.7,42.4,84,65,40,29.99,29.91,23,9,28,0.00
2013-6-27,75.4,66.1,55.1,49.6,44.4,37.5,67,47,28,30.03,29.92,19,4,24,0.00
2013-6-28,88.4,71.0,61.2,54.1,43.3,34.3,58,40,15,29.99,29.77,23,3,23,0.01
2013-6-29,79.6,69.6,59.5,50.8,43.2,35.1,64,41,21,29.91,29.75,21,5,25,0.00
2013-6-30,85.3,73.2,63.2,50.4,42.0,30.1,53,34,14,29.79,29.65,19,4,22,0.00
2013-7-1,81.1,71.6,64.7,47.7,39.6,32.8,48,32,18,29.89,29.70,28,3,32,0.00
2013-7-2,87.6,72.2,64.0,51.3,41.6,33.8,57,35,19,29.94,29.73,20,4,23,0.00
2013-7-3,87.8,70.7,60.2,50.2,44.7,31.9,58,41,22,29.92,29.67,16,3,17,0.00
2013-7-4,83.6,70.1,62.0,53.7,47.4,42.0,60,45,28,29.76,29.57,29,6,31,0.00
2013-7-5,78.6,68.5,59.5,49.6,32.2,16.9,62,31,12,29.62,29.56,22,5,29,0.00
2013-7-6,75.6,66.0,58.6,35.2,27.0,16.8,39,23,18,29.67,29.57,23,5,32,0.00
2013-7-7,76.3,65.3,57.3,38.3,30.4,23.3,42,28,18,29.75,29.62,24,6,33,0.00
2013-7-8,78.1,66.9,60.1,34.8,25.6,16.9,30,21,12,29.88,29.70,28,6,30,0.00
2013-7-9,72.3,64.6,56.9,37.7,27.8,20.7,42,25,20,29.98,29.84,26,9,30,0.00
2013-7-10,77.2,65.2,54.1,34.0,29.5,23.3,42,27,16,29.95,29.77,22,5,28,0.00
2013-7-11,72.0,63.2,56.7,40.8,32.6,24.2,44,32,20,29.82,29.71,33,8,33,0.00
2013-7-12,69.9,61.0,53.8,37.7,28.3,20.8,42,29,19,29.86,29.77,29,9,30,0.00
2013-7-13,70.8,61.3,52.6,38.7,25.6,13.4,44,26,15,29.92,29.79,21,7,28,0.00
2013-7-14,77.4,65.1,54.7,40.6,33.5,25.2,58,32,18,29.90,29.74,21,4,24,0.00
2013-7-15,79.0,64.5,56.7,43.2,37.8,28.6,49,38,17,29.79,29.61,22,5,25,0.00
2013-7-16,69.6,61.7,54.8,39.0,32.5,26.7,50,34,21,29.87,29.61,30,10,33,0.00
2013-7-17,77.6,64.0,52.2,39.7,26.8,12.4,45,26,13,29.99,29.85,16,4,22,0.00
2013-7-18,87.6,70.0,58.3,44.0,32.4,15.6,46,27,9,29.92,29.76,20,4,21,0.00
2013-7-19,88.4,72.6,61.3,43.5,35.7,19.5,46,28,9,29.84,29.66,20,4,22,0.00
2013-7-20,91.4,75.2,65.0,46.7,35.9,24.1,39,25,9,29.74,29.55,16,3,18,0.00
2013-7-21,84.3,74.1,66.6,48.8,41.6,28.9,45,33,14,29.68,29.53,22,5,26,0.00
2013-7-22,81.6,68.8,59.9,50.8,42.7,38.3,69,40,25,29.84,29.63,19,7,27,0.02
2013-7-23,73.5,64.1,59.8,48.7,44.2,37.5,59,49,29,29.92,29.74,18,5,20,0.00
2013-7-24,73.5,64.9,57.3,48.3,44.5,38.6,68,49,32,29.92,29.80,20,5,22,0.00
2013-7-25,82.4,65.7,59.6,56.6,46.4,39.4,80,52,23,29.99,29.80,38,2,40,0.03
2013-7-26,74.4,65.4,57.3,51.2,47.3,42.7,72,53,35,30.04,29.84,28,7,31,0.00
2013-7-27,76.7,65.8,58.9,49.5,41.7,29.8,65,43,21,29.93,29.74,24,6,25,0.00
2013-7-28,72.5,64.3,57.5,40.2,36.4,31.9,48,36,25,29.78,29.68,24,6,28,0.00
2013-7-29,73.9,62.7,58.0,37.6,33.8,25.0,46,35,20,29.89,29.75,24,6,27,0.00
2013-7-30,71.5,62.0,52.9,40.0,35.4,27.9,54,38,22,30.01,29.85,29,7,30,0.00
2013-7-31,69.1,61.1,54.7,39.9,35.1,30.6,54,38,27,29.95,29.84,27,9,32,0.00
2013-8-1,68.3,57.1,50.7,35.5,24.0,13.2,52,30,14,29.94,29.83,28,9,31,0.00
2013-8-2,68.3,57.8,47.7,34.8,22.4,12.5,50,27,14,29.92,29.80,22,5,26,0.00
2013-8-3,71.5,60.4,51.0,41.2,34.3,26.5,66,40,19,29.90,29.80,20,4,23,0.00
2013-8-4,75.3,62.8,52.3,38.6,32.9,19.0,57,35,16,29.92,29.80,20,5,25,0.00
2013-8-5,73.2,62.3,53.3,40.2,30.4,12.8,54,32,13,29.93,29.82,22,6,26,0.00
2013-8-6,77.0,62.9,54.5,40.0,32.7,18.1,53,35,13,29.91,29.78,19,6,24,0.00
2013-8-7,65.8,58.2,51.3,40.2,34.6,28.4,61,42,26,29.92,29.77,26,11,30,0.00
2013-8-8,64.7,55.9,48.8,39.7,35.3,23.2,61,47,23,29.89,29.79,21,6,23,0.00
2013-8-9,66.1,56.1,49.4,39.2,34.2,25.8,59,45,24,29.87,29.75,30,5,32,0.00
2013-8-10,64.8,55.2,46.8,39.4,28.1,20.8,58,36,22,29.97,29.84,28,8,31,0.00
2013-8-11,68.8,58.2,49.2,39.5,31.2,22.3,60,37,20,29.96,29.83,27,5,29,0.00
2013-8-12,69.3,59.6,51.3,38.0,31.0,19.0,57,35,19,29.93,29.82,31,6,31,0.00
2013-8-13,74.0,62.0,52.8,34.2,27.5,20.4,43,28,16,29.97,29.83,24,4,26,0.00
2013-8-14,77.2,64.5,54.8,36.4,25.5,9.7,47,24,10,29.93,29.76,22,5,27,0.00
2013-8-15,72.8,63.5,55.9,39.6,21.9,10.7,53,21,10,29.90,29.76,25,7,29,0.00
2013-8-16,73.2,63.4,55.6,34.3,22.0,11.7,34,21,14,29.96,29.83,24,8,26,0.00
2013-8-17,74.9,65.7,57.3,40.5,35.1,30.0,42,33,22,29.92,29.76,20,3,22,0.00
2013-8-18,84.3,69.7,59.3,38.3,32.5,26.2,41,26,13,29.85,29.73,17,3,19,0.00
2013-8-19,74.6,66.9,62.1,48.2,40.6,35.5,53,38,30,29.87,29.70,15,2,15,0.00
2013-8-20,76.0,64.7,59.5,53.9,40.7,34.3,65,43,24,29.85,29.72,21,4,26,0.06
2013-8-21,77.6,61.1,54.4,57.6,46.3,37.9,88,60,25,29.94,29.76,15,3,26,0.29
2013-8-22,71.1,61.5,54.5,46.0,37.5,28.5,70,44,21,29.95,29.76,18,3,21,0.00
2013-8-23,66.3,59.3,54.1,36.7,30.3,22.5,47,34,23,29.83,29.72,21,5,28,0.00
2013-8-24,66.4,57.1,50.4,37.5,27.5,16.5,56,33,20,29.82,29.71,21,6,26,0.00
2013-8-25,65.0,55.8,50.4,39.9,33.4,25.9,66,43,32,29.89,29.77,23,4,27,0.00
2013-8-26,67.8,58.2,51.6,41.2,33.7,27.4,58,41,24,29.95,29.81,21,5,25,0.00
2013-8-27,70.3,59.5,54.1,43.0,34.3,23.6,59,40,25,29.86,29.73,16,3,21,0.00
2013-8-28,70.1,60.7,54.4,48.3,43.2,35.9,69,53,39,29.86,29.75,20,4,24,0.00
2013-8-29,71.3,62.0,54.8,40.1,35.5,28.4,55,38,22,29.98,29.79,25,4,26,0.00
2013-8-30,76.7,65.3,57.3,37.8,30.9,24.7,37,28,15,30.01,29.85,23,6,25,0.00
2013-8-31,74.7,66.0,60.9,38.0,32.1,24.8,38,28,22,29.91,29.77,25,8,25,0.00
2013-9-1,68.8,61.3,56.9,46.8,38.5,24.9,67,44,26,29.85,29.73,17,6,19,0.00
2013-9-2,68.1,60.7,55.6,47.9,45.6,41.5,70,59,39,29.84,29.73,22,4,22,0.00
2013-9-3,70.9,61.7,55.6,46.2,43.7,39.3,69,52,34,29.87,29.75,23,5,28,0.00
2013-9-4,71.6,62.3,56.2,46.0,43.0,39.4,61,50,33,29.91,29.80,19,4,22,0.00
2013-9-5,68.9,60.2,54.1,41.5,36.0,27.8,58,42,25,29.89,29.78,31,6,32,0.00
2013-9-6,73.0,61.7,52.5,39.4,35.6,31.6,56,39,25,29.96,29.78,19,4,21,0.00
2013-9-7,71.1,62.4,55.1,39.1,31.9,27.2,51,33,21,29.88,29.78,23,4,24,0.00
2013-9-8,71.5,62.1,52.5,39.7,31.1,23.6,58,32,20,29.90,29.77,24,5,27,0.00
2013-9-9,78.3,65.0,55.7,32.2,28.9,21.9,37,26,15,29.84,29.64,15,3,17,0.00
2013-9-10,77.4,64.1,55.1,37.0,28.5,20.0,42,27,13,29.79,29.66,14,3,18,0.00
2013-9-11,73.9,61.9,56.0,41.1,35.4,26.5,52,38,19,29.89,29.71,19,4,21,0.00
2013-9-12,70.8,59.9,51.9,49.8,39.7,33.2,91,50,29,29.91,29.75,17,4,22,0.10
2013-9-13,73.9,57.6,50.4,52.9,47.4,38.6,94,72,29,29.93,29.74,14,3,18,0.01
2013-9-14,76.3,62.5,54.7,47.0,43.0,37.1,68,51,25,29.77,29.63,20,3,20,0.00
2013-9-15,71.6,61.8,55.1,42.3,34.2,26.5,54,36,23,29.76,29.59,23,5,29,0.00
2013-9-16,70.9,59.7,51.7,40.8,32.4,27.4,58,37,22,29.81,29.66,22,6,30,0.00
2013-9-17,58.9,51.3,42.6,36.9,28.3,18.3,65,42,22,29.83,29.58,32,10,36,0.00
2013-9-18,60.7,47.7,36.3,33.7,28.3,17.7,82,50,24,30.00,29.83,16,4,20,0.00
2013-9-19,69.3,55.2,43.1,25.9,23.8,17.9,47,31,18,29.95,29.75,16,4,17,0.00
2013-9-20,66.6,55.7,45.1,32.2,23.1,15.6,54,29,18,29.76,29.62,29,5,33,0.00
2013-9-21,50.8,40.4,31.8,39.3,31.1,17.7,94,72,34,29.83,29.62,31,8,33,0.31
2013-9-22,50.7,40.5,31.9,37.4,31.5,20.0,92,73,33,30.03,29.83,26,7,31,0.01
2013-9-23,64.2,50.8,40.3,39.4,29.6,-2.7,91,52,11,30.05,29.90,17,4,22,0.01
2013-9-24,57.2,50.6,39.3,35.4,21.3,-9.8,71,36,9,29.89,29.68,32,12,39,0.00
2013-9-25,41.1,36.2,28.2,29.1,23.3,16.3,87,60,38,29.88,29.68,26,8,34,0.00
2013-9-26,44.2,32.9,26.0,27.4,22.8,17.7,87,68,41,30.12,29.84,16,3,22,0.00
2013-9-27,55.0,39.6,28.5,25.2,19.2,-99.9,78,50,16,30.20,30.06,13,-14,15,0.00
2013-9-28,60.2,49.1,40.5,30.1,24.1,18.2,53,38,27,30.10,29.96,23,9,28,0.00
2013-9-29,55.7,48.7,44.2,29.9,25.6,18.0,53,41,29,29.97,29.85,34,14,41,0.00
2013-9-30,55.3,48.9,44.6,35.8,30.2,18.5,63,49,31,29.98,29.85,26,9,33,0.00
2013-10-1,59.9,50.7,45.1,38.4,29.9,18.9,72,47,21,29.91,29.82,25,9,31,0.00
2013-10-2,53.2,46.2,38.6,29.6,18.2,1.1,55,34,17,29.92,29.82,31,8,34,0.00
2013-10-3,42.1,36.2,30.0,21.2,14.9,6.7,64,42,26,30.22,29.88,26,8,36,0.00
2013-10-4,45.4,34.4,26.4,18.9,14.9,10.6,69,46,27,30.43,30.21,33,12,38,0.00
2013-10-5,55.6,41.8,29.7,15.2,12.8,6.1,53,32,16,30.47,30.27,21,7,28,0.00
2013-10-6,64.3,51.9,43.5,27.9,16.7,6.2,40,25,14,30.27,29.96,13,4,17,0.00
2013-10-7,60.7,50.9,44.5,21.4,12.5,0.1,39,22,13,30.00,29.83,20,8,23,0.00
2013-10-8,56.7,45.7,39.8,22.0,15.8,2.1,48,31,17,29.89,29.58,18,4,21,0.00
2013-10-9,39.6,33.6,29.4,31.7,26.7,16.7,94,78,44,29.86,29.52,17,4,19,0.06
2013-10-10,46.8,38.6,31.0,31.9,28.2,24.2,84,68,43,30.02,29.85,26,5,28,0.08
2013-10-11,51.7,42.1,35.0,32.6,26.2,7.6,74,55,21,30.08,29.94,18,4,20,0.00
2013-10-12,52.5,41.2,34.9,29.0,22.8,12.0,74,50,27,30.00,29.80,25,7,32,0.00
2013-10-13,44.5,26.8,30.7,35.2,-2.6,-99.9,93,58,58,30.23,29.82,14,-241,16,0.03
2013-10-14,48.0,27.4,30.3,29.9,-14.6,-99.9,83,38,39,30.30,29.81,16,-314,17,0.00
2013-10-15,45.1,36.7,30.0,24.5,20.0,13.9,69,52,35,30.27,30.14,23,8,28,0.00
2013-10-16,55.6,42.9,32.1,29.7,21.2,12.8,59,43,24,30.27,30.07,19,6,20,0.00
2013-10-17,58.3,39.2,38.0,33.9,3.5,-99.9,78,37,17,30.12,29.92,13,-159,14,0.00
2013-10-18,57.5,22.4,38.9,20.1,-48.6,-99.9,45,12,18,30.18,29.85,14,-559,18,0.00
2013-10-19,61.3,17.3,42.3,29.8,-59.2,-99.9,50,11,18,30.18,29.86,10,-669,13,0.00
2013-10-20,63.7,18.9,46.8,19.8,-62.0,-99.9,32,6,12,30.06,29.77,10,-670,14,0.00
2013-10-21,58.3,19.0,44.1,17.4,-58.6,-99.9,29,8,18,30.09,29.76,14,-641,17,0.00
2013-10-22,65.5,18.7,45.2,23.6,-60.0,-99.9,34,8,15,30.11,29.77,6,-666,7,0.00
2013-10-23,62.6,16.6,50.8,19.0,-66.5,-99.9,26,6,16,29.94,29.70,11,-714,12,0.00
2013-10-24,64.7,18.0,44.3,21.1,-61.6,-99.9,31,8,12,30.05,29.73,11,-670,12,0.00
2013-10-25,60.2,16.9,43.1,22.0,-63.0,-99.9,34,8,12,30.20,29.79,6,-678,9,0.00
2013-10-26,60.1,17.6,46.4,15.4,-63.7,-99.9,24,6,16,30.18,29.89,10,-679,12,0.00
2013-10-27,54.5,15.6,44.9,19.0,-64.5,-99.9,28,7,20,29.95,29.11,36,-680,41,0.00
2013-10-28,29.4,6.0,27.2,26.8,-72.9,-99.9,91,19,87,29.79,29.02,20,-782,22,0.00
2013-10-29,30.6,2.8,29.3,26.4,-88.7,-99.9,84,7,82,30.06,29.34,17,-906,17,0.00
2013-10-30,-200.0,0.0,200.0,-99.9,-99.9,-99.9,0,0,100,30.04,29.58,0,-999,0,0.00
2013-10-31,50.0,38.7,34.0,50.0,13.8,-99.9,74,41,31,30.27,29.79,10,-174,14,0.01
2013-11-1,53.8,47.6,35.8,50.0,35.3,24.8,65,49,38,30.31,29.84,8,1,11,0.00
2013-11-2,50.5,48.7,41.3,50.0,36.4,12.0,50,42,26,30.06,29.56,19,4,27,0.00
2013-11-3,50.0,37.7,25.4,50.0,29.3,10.0,85,55,48,30.13,29.52,15,4,21,0.00
2013-11-4,35.2,27.3,22.1,16.3,12.8,10.1,67,54,42,30.26,29.99,21,6,26,0.00
2013-11-5,47.4,35.7,23.9,19.1,11.7,6.2,62,39,24,30.36,30.22,15,3,19,0.00
2013-11-6,57.8,45.0,36.9,30.6,21.4,14.2,65,40,24,30.36,30.14,10,2,12,0.00
2013-11-7,52.6,45.8,40.8,31.1,15.7,8.4,68,31,18,30.18,29.99,31,8,31,0.00
2013-11-8,54.5,45.8,41.1,23.2,17.4,10.4,45,32,22,30.06,29.91,23,7,26,0.00
2013-11-9,53.8,46.5,40.1,26.5,20.4,14.0,54,36,26,30.08,29.94,14,2,14,0.00
2013-11-10,56.6,48.1,41.8,21.8,10.0,-9.2,31,22,10,30.14,30.01,11,2,12,0.00
2013-11-11,57.5,50.5,42.9,21.6,8.3,-9.2,35,18,10,30.18,30.03,11,2,11,0.00
2013-11-12,58.7,50.1,42.8,27.1,16.9,5.0,41,28,15,30.26,30.09,16,2,22,0.00
2013-11-13,55.4,45.5,40.2,29.0,24.5,14.5,59,44,28,30.26,30.10,16,3,20,0.00
2013-11-14,52.2,41.9,34.9,29.9,22.5,17.4,64,47,26,30.14,29.71,23,7,28,0.00
2013-11-15,37.2,31.8,27.2,28.1,25.1,22.2,91,77,57,29.86,29.68,22,6,24,0.00
2013-11-16,41.5,36.1,32.5,27.5,22.2,14.0,69,57,40,29.87,29.65,28,11,32,0.00
2013-11-17,49.4,39.7,31.5,28.9,23.7,17.0,81,55,33,30.10,29.88,11,4,14,0.00
2013-11-18,43.3,38.3,33.7,29.7,27.4,20.4,82,65,44,30.05,29.95,28,10,31,0.00
2013-11-19,41.6,36.6,32.7,33.0,29.9,25.8,90,77,63,30.06,29.89,26,8,33,0.01
2013-11-20,38.8,33.7,30.6,33.4,30.6,28.6,93,89,75,29.90,29.83,16,4,19,0.02
2013-11-21,30.3,20.7,16.9,28.5,18.0,13.7,93,89,87,30.43,29.85,16,5,22,0.00
2013-11-22,24.5,19.4,13.3,14.3,10.8,7.8,87,70,54,30.55,30.32,30,9,40,0.00
2013-11-23,31.9,26.0,21.6,9.4,6.1,1.9,56,42,29,30.35,30.24,30,9,33,0.00
2013-11-24,37.5,30.0,24.8,13.4,8.9,5.0,50,41,27,30.41,30.24,13,5,16,0.00
2013-11-25,44.9,36.1,30.0,17.1,12.3,8.0,48,37,22,30.43,30.26,14,4,16,0.00
2013-11-26,49.1,41.3,36.8,29.0,17.1,9.5,62,38,27,30.32,30.02,9,2,10,0.00
2013-11-27,48.9,38.9,32.1,25.6,20.1,14.5,68,48,29,30.02,29.85,8,2,10,0.00
2013-11-28,39.3,33.1,29.5,26.5,24.2,21.6,82,70,57,30.18,29.90,15,3,15,0.00
2013-11-29,40.8,33.5,28.1,26.8,24.4,21.0,85,70,49,30.35,30.16,14,3,16,0.00
2013-11-30,48.2,36.9,30.7,27.4,21.4,11.5,81,55,28,30.36,30.20,10,3,14,0.00
2013-12-1,49.9,39.9,31.6,26.1,21.4,11.4,78,49,23,30.44,30.26,13,4,15,0.00
2013-12-2,48.2,42.5,35.8,29.9,15.6,3.4,79,36,19,30.26,29.72,38,14,40,0.00
2013-12-3,35.8,21.3,9.3,31.2,17.7,4.9,92,86,75,29.98,29.63,29,8,33,0.00
2013-12-4,14.9,10.4,8.1,10.4,6.1,3.8,84,82,79,30.25,29.97,13,5,16,0.00
2013-12-5,20.2,12.5,5.2,11.4,3.6,-4.3,85,69,41,30.29,30.16,18,5,20,0.00
2013-12-6,23.3,18.3,14.6,15.6,-2.7,-19.9,89,45,17,30.18,29.73,28,9,33,0.00
2013-12-7,18.6,12.0,7.2,15.4,8.0,2.6,87,84,81,30.31,29.73,27,10,33,0.00
2013-12-8,13.1,7.1,4.1,9.2,2.5,-0.9,84,81,79,30.59,30.30,13,4,15,0.00
2013-12-9,25.7,14.4,4.5,17.5,6.3,-0.3,82,71,47,30.78,30.57,21,7,22,0.00
2013-12-10,37.2,28.4,23.2,19.1,10.7,3.0,82,50,26,30.57,30.28,14,5,14,0.00
2013-12-11,30.9,25.6,20.2,13.6,10.2,7.8,61,52,42,30.47,30.30,14,5,15,0.00
2013-12-12,40.9,33.0,26.6,23.1,13.7,-4.2,86,48,18,30.42,30.19,15,4,19,0.00
2013-12-13,39.9,30.6,23.3,16.9,7.6,-2.8,67,40,22,30.49,30.15,19,6,20,0.00
2013-12-14,47.6,34.4,24.2,18.4,10.2,-6.1,67,41,14,30.62,30.43,13,3,15,0.00
2013-12-15,53.2,43.7,35.9,27.0,10.6,2.0,41,26,15,30.45,30.25,6,1,7,0.00
2013-12-16,53.5,45.4,40.2,22.5,7.8,1.9,47,21,16,30.34,30.24,10,2,14,0.00
2013-12-17,48.8,44.2,40.1,29.8,16.6,9.0,54,33,25,30.30,30.09,12,2,12,0.00
2013-12-18,50.7,41.9,31.9,29.8,21.1,9.5,61,45,22,30.08,29.59,22,6,28,0.00
2013-12-19,31.9,21.1,13.5,22.7,17.0,9.4,93,84,54,30.17,29.54,25,7,28,0.00
2013-12-20,35.5,23.9,11.6,27.1,12.3,-10.8,88,66,14,30.26,30.02,21,5,21,0.00
2013-12-21,39.6,33.7,29.1,28.9,25.3,21.6,84,71,56,30.19,29.96,23,5,23,0.00
2013-12-22,42.6,34.8,29.0,29.5,25.2,15.9,83,68,50,30.42,30.17,19,6,23,0.00
2013-12-23,46.4,38.2,31.6,29.8,22.5,9.3,81,56,27,30.52,30.35,9,3,10,0.00
2013-12-24,43.3,36.3,28.2,26.9,22.5,12.2,91,59,33,30.49,30.33,14,5,18,0.00
2013-12-25,43.3,34.3,27.6,27.0,17.0,5.3,95,53,24,30.56,30.39,14,4,16,0.00
2013-12-26,53.6,42.1,34.3,16.8,1.7,-6.2,29,19,10,30.48,30.23,11,2,11,0.00
2013-12-27,44.8,39.0,34.1,23.0,7.9,-9.2,45,29,12,30.37,30.14,13,4,15,0.00
2013-12-28,38.8,32.4,24.8,17.7,8.3,-4.3,74,39,16,30.38,30.10,21,7,26,0.00
2013-12-29,38.5,30.5,22.1,18.0,9.9,-4.2,79,47,18,30.46,30.29,17,5,19,0.00
2013-12-30,48.3,39.8,33.7,23.7,12.6,0.1,51,33,17,30.35,30.17,17,6,19,0.00
2013-12-31,48.3,40.9,36.8,12.2,4.7,-1.6,31,22,16,30.27,30.12,15,5,17,0.00
2014-1-1,49.6,38.6,34.3,19.7,11.3,1.6,50,33,21,30.31,30.14,14,3,16,0.00
2014-1-2,49.9,39.7,32.5,26.1,20.5,16.0,71,47,30,30.28,30.09,7,1,8,0.00